Location: Moscow
(55.7500°N, 37.5830°E)
Time: 10:26:58
(UTC+03:00)

Explorer 7 - Pass Details

Date: 07 December 2021
Orbit: 483 x 674 km, 50.3° (Epoch: 19 January)

Event Time Altitude Azimuth Distance (km) Brightness Sun altitude
Rises 08:28:50 0° 263° (W) 2,760 10.0 -2.5°
Reaches altitude 10° 08:31:15 10° 255° (WSW) 1,828 9.1 -2.2°
Maximum altitude 08:35:04 36° 189° (S) 849 8.2 -1.8°
Drops below altitude 10° 08:38:41 10° 122° (ESE) 1,731 11.4 -1.4°
Sets 08:40:55 0° 113° (ESE) 2,592 12.0 -1.2°
